Tracking 30261 objects as of 18-Feb-2025
HD Live streaming from Space Station
objects crossing your sky now

STARLINK-5244

Track STARLINK-5244 now!
10-day predictions
STARLINK-5244 is classified as:


NORAD ID: 54199
Int'l Code: 2022-141AU
Perigee: 545.9 km
Apogee: 547.8 km
Inclination: 53.2 °
Period: 95.4 minutes
Semi major axis: 6917 km
RCS: Unknown
Launch date: October 28, 2022
Source: United States (US)
Launch site: AIR FORCE WESTERN TEST RANGE (AFWTR)
Your satellite tracking list
Your tracking list is empty




NASA's NSSDC Master Catalog

Two Line Element Set (TLE):
1 54199U 22141AU  25048.93207931  .00000949  00000-0  77704-4 0  9992
2 54199  53.2175 281.2894 0001396  94.0037 266.1115 15.08840170128141
Source of the keplerian elements: AFSPC